Location: Morrison Observatory
(41.7012°N, 86.2315°W)
Time: 21:32:53
(UTC-04:00)

Daily predictions for brighter satellites

Satellite Brightness Start Highest point End
(mag) Time Altitude Azimuth Time Altitude Azimuth Time Altitude Azimuth
Cosmos 2322 Rocket 2.3 21:48:32 10° NNW 21:54:09 65° ENE 21:59:42 10° SE
Cosmos 1939 Rocket 3.1 21:50:57 10° SSE 21:54:50 55° ENE 21:58:41 10° N
H-2A R/B 4.2 21:54:20 10° ENE 21:56:00 11° ENE 21:57:40 10° NE
Cosmos 2026 Rocket 4.1 21:52:56 10° S 21:59:00 81° W 22:05:13 10° N
SPOT 5 3.3 21:58:04 10° SE 22:02:19 44° ENE 22:06:50 10° N
Cosmos 405 Rocket 4.2 21:58:58 10° SSW 22:02:28 40° WNW 22:06:01 10° N
SL-16 R/B 2.3 21:57:00 10° NNW 22:02:42 72° ENE 22:08:21 10° SSE
Cosmos 371 Rocket 3.3 21:59:37 10° NNW 22:04:28 78° ENE 22:09:15 10° SSE
CZ-2C R/B 0.3 22:03:05 10° S 22:04:53 58° W 22:06:42 10° NNW
Cosmos 1980 Rocket 3.4 21:59:41 10° NW 22:04:58 41° WSW 22:10:15 10° S
Cosmos 1908 4.3 22:01:44 10° NNE 22:05:12 30° ENE 22:08:39 10° SE
Cosmos 2151 4.4 22:02:23 10° SE 22:05:29 20° E 22:08:36 10° NE
Cosmos 2360 Rocket 3.3 22:00:32 10° N 22:05:32 31° NE 22:10:31 10° ESE
Cosmos 1151 Rocket 4.0 22:04:42 10° NNE 22:08:34 31° ENE 22:12:25 10° SE
Cosmos 1655 Rocket 4.4 22:06:31 10° SSW 22:12:40 67° W 22:18:53 10° N
ALOS 4.2 22:10:04 10° SSW 22:14:03 28° W 22:18:04 10° NW
In-Cosmos 22 4.3 22:08:35 10° S 22:14:20 80° E 22:20:07 10° NNE
Cosmos 1538 Rocket 4.1 22:09:00 10° NNW 22:14:22 82° ENE 22:19:43 10° SSE
S3M 4.0 22:11:57 10° N 22:18:06 87° W 22:24:13 10° S
H-2A R/B 2.5 22:15:25 10° S 22:19:54 70° WSW 22:24:27 10° NNW
Cosmos 2228 Rocket 3.7 22:19:56 10° NNW 22:24:19 57° W 22:28:43 10° S
Cosmos 1437 Rocket 2.8 22:21:00 10° N 22:24:46 62° ENE 22:28:15 12° SSE
Cosmos 1328 Rocket 3.8 22:21:17 10° NNW 22:25:45 72° W 22:30:09 10° S
Cosmos 1674 2.9 22:26:38 10° S 22:30:20 53° E 22:34:06 10° NNE
Cosmos 1833 4.4 22:25:18 10° S 22:30:49 51° ESE 22:36:18 10° NE
Cosmos 2333 Rocket 4.5 22:29:40 10° NNE 22:31:51 12° NE 22:34:01 10° ENE
MetOp-B 4.2 22:27:22 11° SSE 22:32:36 73° ENE 22:37:57 10° N
PSLV R/B 3.1 22:31:44 13° S 22:34:29 85° W 22:37:34 10° NNW
Meteor 1-21 Rocket 4.3 22:29:01 10° SSW 22:34:34 81° W 22:40:08 10° N
CZ-4B R/B 3.8 22:29:36 10° NNE 22:34:45 51° E 22:39:49 10° S
Cosmos 1300 4.3 22:34:21 10° NNE 22:37:22 22° ENE 22:39:16 16° ESE
SL-08 RB Rocket 4.4 22:36:33 16° SE 22:39:39 37° ENE 22:43:48 10° N
Cosmos 2058 3.8 22:39:47 18° SE 22:42:07 30° E 22:45:44 10° NNE
GPS 2-04 Rocket1 4.4 22:39:48 10° WSW 22:43:09 22° SSW 22:45:05 16° SSE
Cosmos 1328 4.2 22:40:37 16° SSE 22:43:29 43° E 22:47:15 10° NNE
COSMOS 2428 3.8 22:39:19 10° N 22:44:21 31° NE 22:48:24 14° ESE
Cosmos 773 Rocket 4.0 22:39:15 10° NNW 22:44:27 88° ENE 22:48:41 16° SSE
Cosmos 1500 Rocket 4.1 22:40:40 10° SSW 22:44:57 61° W 22:49:20 10° N
USA 229 DEB 3.7 22:40:59 10° SSW 22:47:54 84° SE 22:54:57 10° NE
USA 229 3.7 22:41:06 10° SSW 22:48:01 83° ESE 22:55:02 10° NE
Cosmos 304 Rocket 3.9 22:47:09 10° NNW 22:51:57 63° ENE 22:55:07 21° SE
SL-23 DEB 4.4 22:47:39 10° NW 22:52:43 56° NNE 22:55:10 18° ESE
Cosmos 883 Rocket 4.5 22:47:14 10° N 22:53:31 89° E 22:58:59 14° S
AVUM R/B 2.4 22:58:38 20° SSW 23:00:01 80° WNW 23:02:29 10° NNE
Delta 2 Rocket 4.4 22:58:46 10° SW 23:00:30 19° S 23:00:30 19° S
USA 245 2.5 23:04:47 29° S 23:05:59 66° WSW 23:08:29 10° NNW
NOSS 3-1 (A) 4.2 23:05:11 21° SSE 23:07:52 30° ESE 23:13:18 10° NE
ATLAS CENTAUR R/B 3.8 23:05:37 10° WNW 23:08:17 16° WSW 23:10:51 10° SW
Cosmos 2219 Rocket 3.6 23:04:34 10° N 23:09:11 26° NE 23:12:41 15° E
Cosmos 2315 Rocket 3.9 23:03:20 10° N 23:09:35 85° E 23:14:09 19° S
Terra 2.5 23:08:07 23° SE 23:10:32 40° ENE 23:14:58 10° N
YAOGAN 6 3.4 23:08:39 18° SSW 23:11:09 47° W 23:14:41 10° NNW
DELTA 2 R/B (1) 3.6 23:06:32 10° W 23:12:01 63° SSW 23:15:33 22° ESE
SL-14 R/B 3.6 23:13:40 32° SE 23:15:05 47° E 23:18:55 10° NNE
CZ-4 R/B 3.9 23:10:37 10° NNE 23:15:37 88° ESE 23:19:46 14° SSW
Meteor 1-27 4.3 23:10:55 10° N 23:16:38 68° ENE 23:19:54 26° SSE
Cosmos 1703 4.4 23:16:03 26° ESE 23:16:38 27° E 23:19:57 10° NNE
Cosmos 2298 Rocket 4.4 23:15:37 25° SSE 23:18:21 45° ESE 23:23:24 10° NNE
ARGOS 3.2 23:14:35 20° S 23:18:22 76° WSW 23:23:47 10° NNW
Cosmos 2112 Rocket 4.0 23:14:34 10° NNW 23:19:49 87° WSW 23:22:47 27° SSE
CARTOSAT-1 3.9 23:20:21 31° SE 23:22:08 52° ENE 23:26:21 10° N
Cosmos 2219 3.2 23:16:52 10° SSW 23:22:31 73° ESE 23:28:16 10° NNE
Cosmos 1271 Rocket 3.5 23:22:02 10° N 23:25:35 36° ENE 23:26:27 32° ESE
Cosmos 1633 Rocket 3.1 23:26:23 33° SSE 23:28:08 60° E 23:32:28 10° NNE
Sich 1 3.0 23:28:03 32° SSE 23:29:58 68° E 23:34:22 10° NNE
Cosmos 2322 4.0 23:24:41 10° NNW 23:30:19 60° WSW 23:33:36 25° S
ATLAS 2AS CENTAUR R/B 4.1 23:29:35 21° ESE 23:30:51 22° ESE 23:36:27 10° ENE
H-2A R/B 2.1 23:31:47 30° SSE 23:34:27 79° ENE 23:39:53 10° N
Cosmos 2237 Rocket 3.6 23:29:51 10° N 23:34:42 28° NE 23:37:50 17° E
Cosmos 1937 Rocket 4.0 23:34:59 32° SE 23:36:25 39° ESE 23:41:15 10° NE
Cosmos 2322 Rocket 4.4 23:34:03 10° WNW 23:37:34 17° W 23:41:06 10° SW
Cosmos 1805 Rocket 4.1 23:37:41 19° SSW 23:40:42 58° W 23:45:07 10° N
Cosmos 1726 2.1 23:37:24 10° N 23:41:11 80° W 23:42:11 47° S
Iridium 2 3.8 23:42:31 50° SE 23:43:08 59° E 23:46:56 10° NNE
Nadezhda 1 Rocket 4.2 23:39:05 10° N 23:45:03 55° E 23:47:39 33° SE
SL-16 R/B 4.5 23:42:51 10° WNW 23:46:07 16° W 23:49:23 10° SW
Meteor 1-11 4.4 23:42:10 18° SSW 23:46:30 73° W 23:52:16 10° N
SAR-Lupe-2 3.4 23:48:16 62° SSE 23:48:49 89° E 23:52:26 10° NNW
Cosmos 2360 Rocket 3.1 23:44:22 10° NW 23:49:36 39° WSW 23:52:34 23° SSW
Cosmos 990 Rocket 4.5 23:53:10 37° SE 23:53:57 39° ESE 23:58:43 10° NE
